0 HST 1 20580U 90037B 26133.19372359 .00004351 00000-0 13638-3 0 9995 2 20580 28.4756 319.6625 0002153 105.4031 254.6803 15.30366798783202 0 ISS (ZARYA) 1 25544U 98067A 26133.16648102 .00004986 00000-0 97915-4 0 9995 2 25544 51.6312 113.4597 0007515 53.2822 306.8856 15.49201863566327 0 CXO 1 25867U 99040B 26134.99575802 .00000704 00000-0 00000-0 0 9992 2 25867 55.6591 117.5844 7896930 310.4386 359.9851 0.37808652 17195